LGX38GL DAAG-LIML

Flight info

Callsign LGX38GL
Flight time 1h 26m
Altitude 36000
Route OTARO DCT TORTU DCT ERTEV DCT ITCAP
Aircraft B752/M-SDE2E3FGHIJ3J4J7RWXY/LB1

Departure

Time 2026-05-08 08:08
Airport Houari Boumediene Airport (DAAG)

Arrival

Time 2026-05-08 09:35
Airport Milano Linate Airport (LIML)
Time Latitude Longitude Altitude Speed Heading
2026-05-08 07:49 36.69714 3.19818 58 ft 0 kts 272°
2026-05-08 07:59 36.69714 3.19823 57 ft 2 kts 272°
2026-05-08 08:00 36.69713 3.19842 58 ft 2 kts 272°
2026-05-08 08:00 36.69713 3.19853 58 ft 2 kts 271°
2026-05-08 08:00 36.69715 3.19871 58 ft 2 kts 247°
2026-05-08 08:00 36.69723 3.19888 58 ft 2 kts 229°
2026-05-08 08:01 36.69734 3.19900 59 ft 2 kts 210°
2026-05-08 08:01 36.69747 3.19907 59 ft 2 kts 192°
2026-05-08 08:01 36.69756 3.19908 59 ft 1 kts 180°
2026-05-08 08:01 36.69761 3.19908 59 ft 0 kts 180°
2026-05-08 08:03 36.69748 3.19908 59 ft 4 kts 180°
2026-05-08 08:03 36.69666 3.19906 59 ft 18 kts 182°
2026-05-08 08:03 36.69568 3.19902 59 ft 10 kts 182°
2026-05-08 08:04 36.69501 3.19900 61 ft 8 kts 176°
2026-05-08 08:04 36.69458 3.19967 62 ft 15 kts 101°
2026-05-08 08:04 36.69451 3.20124 62 ft 18 kts 91°
2026-05-08 08:04 36.69447 3.20279 63 ft 16 kts 92°
2026-05-08 08:05 36.69443 3.20432 64 ft 17 kts 91°
2026-05-08 08:05 36.69439 3.20592 66 ft 19 kts 92°
2026-05-08 08:05 36.69435 3.20750 67 ft 17 kts 91°
2026-05-08 08:05 36.69411 3.20855 67 ft 11 kts 125°
2026-05-08 08:06 36.69387 3.20946 67 ft 9 kts 89°
2026-05-08 08:06 36.69384 3.21061 67 ft 18 kts 91°
2026-05-08 08:06 36.69382 3.21260 67 ft 25 kts 90°
2026-05-08 08:06 36.69381 3.21473 68 ft 23 kts 90°
2026-05-08 08:07 36.69378 3.21665 71 ft 20 kts 91°
2026-05-08 08:07 36.69379 3.21837 71 ft 19 kts 88°
2026-05-08 08:07 36.69382 3.21988 73 ft 14 kts 83°
2026-05-08 08:07 36.69437 3.22106 74 ft 28 kts 53°
2026-05-08 08:08 36.69697 3.22533 81 ft 96 kts 53°
2026-05-08 08:08 36.70238 3.23420 89 ft 160 kts 51°
2026-05-08 08:08 36.71002 3.24667 356 ft 195 kts 49°
2026-05-08 08:08 36.72059 3.25660 1362 ft 196 kts 23°
2026-05-08 08:09 36.73418 3.25996 2047 ft 204 kts
2026-05-08 08:09 36.74892 3.26085 2292 ft 223 kts
2026-05-08 08:09 36.76483 3.26386 2566 ft 242 kts 12°
2026-05-08 08:09 36.78178 3.26892 2960 ft 257 kts 14°
2026-05-08 08:10 36.80024 3.27138 3386 ft 271 kts
2026-05-08 08:10 36.81881 3.27406 4170 ft 272 kts
2026-05-08 08:10 36.83728 3.27890 4854 ft 276 kts 12°
2026-05-08 08:10 36.85601 3.28487 5570 ft 279 kts 14°
2026-05-08 08:11 36.87451 3.29148 6281 ft 281 kts 14°
2026-05-08 08:11 36.89351 3.29866 6931 ft 286 kts 14°
2026-05-08 08:11 36.91242 3.30605 7586 ft 290 kts 14°
2026-05-08 08:11 36.93171 3.31372 8204 ft 295 kts 14°
2026-05-08 08:12 36.95133 3.32162 8901 ft 297 kts 13°
2026-05-08 08:12 36.97101 3.32957 9502 ft 301 kts 12°
2026-05-08 08:12 36.99113 3.33774 10122 ft 305 kts 12°
2026-05-08 08:12 37.01158 3.34600 10438 ft 321 kts 13°
2026-05-08 08:13 37.03368 3.35498 10643 ft 341 kts 13°
2026-05-08 08:13 37.05686 3.36443 10842 ft 360 kts 13°
2026-05-08 08:13 37.08083 3.37425 11377 ft 367 kts 13°
2026-05-08 08:13 37.10517 3.38425 12027 ft 370 kts 13°
2026-05-08 08:14 37.12976 3.39432 12600 ft 375 kts 14°
2026-05-08 08:14 37.15389 3.40673 13147 ft 384 kts 26°
2026-05-08 08:14 37.17544 3.42717 13692 ft 394 kts 43°
2026-05-08 08:14 37.19260 3.45425 14221 ft 401 kts 54°
2026-05-08 08:15 37.20833 3.48309 14705 ft 405 kts 53°
2026-05-08 08:15 37.22509 3.51201 15148 ft 409 kts 46°
2026-05-08 08:15 37.24580 3.53567 15604 ft 407 kts 30°
2026-05-08 08:15 37.27085 3.55222 16028 ft 405 kts 14°
2026-05-08 08:16 37.29787 3.56007 16524 ft 398 kts
2026-05-08 08:16 37.32548 3.56591 16910 ft 408 kts
2026-05-08 08:16 37.35255 3.57711 17371 ft 415 kts 16°
2026-05-08 08:16 37.37952 3.59114 17819 ft 420 kts 19°
2026-05-08 08:17 37.40597 3.60646 18169 ft 427 kts 21°
2026-05-08 08:17 37.43283 3.62293 18681 ft 428 kts 21°
2026-05-08 08:17 37.45970 3.63989 19065 ft 432 kts 22°
2026-05-08 08:17 37.48646 3.65712 19509 ft 435 kts 23°
2026-05-08 08:18 37.51318 3.67448 19912 ft 438 kts 23°
2026-05-08 08:18 37.54052 3.69236 20267 ft 442 kts 22°
2026-05-08 08:18 37.56780 3.71027 20690 ft 445 kts 23°
2026-05-08 08:18 37.59517 3.72828 21048 ft 449 kts 22°
2026-05-08 08:19 37.62289 3.74656 21463 ft 452 kts 22°
2026-05-08 08:19 37.65063 3.76489 21882 ft 454 kts 22°
2026-05-08 08:19 37.67897 3.78361 22189 ft 459 kts 22°
2026-05-08 08:19 37.70697 3.80218 22698 ft 459 kts 22°
2026-05-08 08:20 37.73569 3.82120 22986 ft 465 kts 23°
2026-05-08 08:20 37.76403 3.84005 23471 ft 465 kts 22°
2026-05-08 08:20 37.79263 3.85906 23838 ft 468 kts 22°
2026-05-08 08:20 37.82158 3.87834 24277 ft 468 kts 22°
2026-05-08 08:21 37.85032 3.89749 24624 ft 472 kts 22°
2026-05-08 08:21 37.87946 3.91694 24976 ft 474 kts 22°
2026-05-08 08:21 37.90850 3.93636 25460 ft 473 kts 22°
2026-05-08 08:21 37.93762 3.95585 25793 ft 476 kts 22°
2026-05-08 08:22 37.96691 3.97548 26090 ft 479 kts 22°
2026-05-08 08:22 37.99645 3.99531 26556 ft 478 kts 22°
2026-05-08 08:22 38.02598 4.01513 26778 ft 483 kts 22°
2026-05-08 08:22 38.05552 4.03503 27287 ft 481 kts 22°
2026-05-08 08:23 38.08503 4.05489 27495 ft 486 kts 22°
2026-05-08 08:23 38.11507 4.07516 27898 ft 486 kts 23°
2026-05-08 08:23 38.14480 4.09526 28125 ft 491 kts 22°
2026-05-08 08:23 38.17503 4.11569 28502 ft 490 kts 23°
2026-05-08 08:24 38.20480 4.13587 28851 ft 492 kts 23°
2026-05-08 08:24 38.23526 4.15652 29081 ft 495 kts 23°
2026-05-08 08:24 38.26581 4.17729 29402 ft 497 kts 23°
2026-05-08 08:24 38.29600 4.19781 29720 ft 498 kts 23°
2026-05-08 08:25 38.32684 4.21881 29910 ft 502 kts 23°
2026-05-08 08:25 38.35730 4.23959 30273 ft 502 kts 23°
2026-05-08 08:25 38.38835 4.26081 30477 ft 505 kts 23°
2026-05-08 08:25 38.41930 4.28199 30830 ft 505 kts 23°
2026-05-08 08:26 38.45006 4.30304 30952 ft 509 kts 23°
2026-05-08 08:26 38.48144 4.32456 31179 ft 511 kts 23°
2026-05-08 08:26 38.51270 4.34606 31500 ft 510 kts 23°
2026-05-08 08:26 38.54396 4.36757 31782 ft 511 kts 23°
2026-05-08 08:27 38.57504 4.38896 31978 ft 513 kts 23°
2026-05-08 08:27 38.60654 4.41071 32300 ft 511 kts 23°
2026-05-08 08:27 38.63762 4.43219 32570 ft 512 kts 23°
2026-05-08 08:27 38.66869 4.45367 32807 ft 512 kts 23°
2026-05-08 08:28 38.70015 4.47549 33143 ft 511 kts 22°
2026-05-08 08:28 38.73151 4.49723 33385 ft 511 kts 23°
2026-05-08 08:28 38.76241 4.51871 33607 ft 512 kts 22°
2026-05-08 08:28 38.79348 4.54034 33803 ft 512 kts 23°
2026-05-08 08:29 38.82483 4.56220 34143 ft 510 kts 22°
2026-05-08 08:29 38.85597 4.58393 34271 ft 512 kts 22°
2026-05-08 08:29 38.88727 4.60581 34521 ft 512 kts 22°
2026-05-08 08:29 38.91844 4.62764 34733 ft 512 kts 22°
2026-05-08 08:30 38.94928 4.64928 35059 ft 509 kts 22°
2026-05-08 08:30 38.98054 4.67125 35234 ft 509 kts 23°
2026-05-08 08:30 39.04024 4.72158 35607 ft 513 kts 29°
2026-05-08 08:31 39.09867 4.77356 35750 ft 516 kts 29°
2026-05-08 08:31 39.12797 4.79983 35981 ft 513 kts 29°
2026-05-08 08:31 39.15750 4.82635 35973 ft 514 kts 29°
2026-05-08 08:32 39.21561 4.87871 35983 ft 510 kts 29°
2026-05-08 08:32 39.27361 4.93108 35989 ft 511 kts 29°
2026-05-08 08:33 39.33189 4.98384 35995 ft 511 kts 29°
2026-05-08 08:33 39.38987 5.03646 35992 ft 510 kts 29°
2026-05-08 08:34 39.44753 5.08887 35995 ft 510 kts 29°
2026-05-08 08:34 39.50545 5.14164 35994 ft 506 kts 29°
2026-05-08 08:35 39.56307 5.19424 36001 ft 507 kts 29°
2026-05-08 08:35 39.62034 5.24664 36000 ft 505 kts 29°
2026-05-08 08:36 39.67768 5.29918 35997 ft 506 kts 29°
2026-05-08 08:36 39.73502 5.35187 35994 ft 505 kts 29°
2026-05-08 08:37 39.79192 5.40425 36000 ft 505 kts 28°
2026-05-08 08:37 39.84935 5.45723 36000 ft 504 kts 29°
2026-05-08 08:38 39.90616 5.50974 35995 ft 503 kts 29°
2026-05-08 08:38 39.96310 5.56249 35997 ft 503 kts 28°
2026-05-08 08:39 40.01991 5.61523 35953 ft 497 kts 28°
2026-05-08 08:39 40.07600 5.66739 35987 ft 499 kts 29°
2026-05-08 08:40 40.13261 5.72015 35982 ft 501 kts 29°
2026-05-08 08:40 40.18906 5.77287 35983 ft 502 kts 29°
2026-05-08 08:41 40.24600 5.82617 35983 ft 503 kts 29°
2026-05-08 08:41 40.30270 5.87936 35985 ft 503 kts 29°
2026-05-08 08:42 40.35949 5.93272 35994 ft 503 kts 29°
2026-05-08 08:42 40.41611 5.98606 35992 ft 504 kts 29°
2026-05-08 08:43 40.47310 6.03986 35996 ft 504 kts 28°
2026-05-08 08:43 40.52943 6.09314 36005 ft 502 kts 29°
2026-05-08 08:44 40.58618 6.14694 36010 ft 503 kts 28°
2026-05-08 08:44 40.64260 6.20053 36008 ft 502 kts 28°
2026-05-08 08:45 40.69906 6.25430 36010 ft 499 kts 28°
2026-05-08 08:45 40.75512 6.30778 36010 ft 499 kts 28°
2026-05-08 08:46 40.81149 6.36165 36011 ft 500 kts 28°
2026-05-08 08:46 40.86747 6.41529 36018 ft 501 kts 28°
2026-05-08 08:47 40.92386 6.46943 36010 ft 500 kts 28°
2026-05-08 08:47 40.97988 6.52335 36016 ft 498 kts 28°
2026-05-08 08:48 41.03587 6.57735 36013 ft 496 kts 28°
2026-05-08 08:48 41.09145 6.63105 36013 ft 496 kts 28°
2026-05-08 08:49 41.14701 6.68484 36000 ft 498 kts 28°
2026-05-08 08:49 41.20288 6.73908 35999 ft 497 kts 28°
2026-05-08 08:50 41.25877 6.79345 35987 ft 496 kts 28°
2026-05-08 08:50 41.31393 6.84721 35988 ft 496 kts 28°
2026-05-08 08:51 41.36942 6.90140 35988 ft 496 kts 28°
2026-05-08 08:51 41.42510 6.95593 35987 ft 495 kts 28°
2026-05-08 08:52 41.48039 7.01016 35989 ft 495 kts 28°
2026-05-08 08:52 41.53566 7.06450 35987 ft 495 kts 28°
2026-05-08 08:53 41.59074 7.11879 35984 ft 493 kts 28°
2026-05-08 08:53 41.64580 7.17314 35990 ft 494 kts 28°
2026-05-08 08:54 41.70087 7.22764 35988 ft 493 kts 28°
2026-05-08 08:54 41.75583 7.28216 35989 ft 493 kts 28°
2026-05-08 08:55 41.81061 7.33659 35992 ft 494 kts 28°
2026-05-08 08:55 41.86595 7.39173 35991 ft 494 kts 28°
2026-05-08 08:56 41.92059 7.44629 35990 ft 493 kts 28°
2026-05-08 08:56 41.97538 7.50111 35988 ft 492 kts 28°
2026-05-08 08:57 42.03014 7.55600 35996 ft 491 kts 28°
2026-05-08 08:57 42.08483 7.61095 35995 ft 493 kts 28°
2026-05-08 08:58 42.13975 7.66626 35987 ft 493 kts 29°
2026-05-08 08:58 42.19449 7.72152 35987 ft 493 kts 30°
2026-05-08 08:59 42.24925 7.77693 35983 ft 491 kts 30°
2026-05-08 08:59 42.30335 7.83178 35984 ft 490 kts 30°
2026-05-08 09:00 42.35797 7.88727 35988 ft 491 kts 30°
2026-05-08 09:00 42.41232 7.94262 35990 ft 491 kts 30°
2026-05-08 09:01 42.46682 7.99825 35987 ft 492 kts 30°
2026-05-08 09:01 42.52138 8.05405 35987 ft 492 kts 31°
2026-05-08 09:02 42.57600 8.11004 35989 ft 493 kts 31°
2026-05-08 09:02 42.63055 8.16609 35994 ft 494 kts 31°
2026-05-08 09:03 42.68499 8.22217 36000 ft 493 kts 31°
2026-05-08 09:03 42.73965 8.27858 36006 ft 494 kts 31°
2026-05-08 09:04 42.79410 8.33491 36003 ft 495 kts 32°
2026-05-08 09:04 42.84897 8.39180 36004 ft 495 kts 32°
2026-05-08 09:05 42.90341 8.44839 36011 ft 494 kts 32°
2026-05-08 09:05 42.95772 8.50495 36005 ft 493 kts 33°
2026-05-08 09:06 43.01208 8.56171 36008 ft 493 kts 33°
2026-05-08 09:06 43.06638 8.61853 36002 ft 494 kts 33°
2026-05-08 09:07 43.12053 8.67533 36014 ft 490 kts 34°
2026-05-08 09:07 43.14718 8.70337 36006 ft 475 kts 34°
2026-05-08 09:07 43.17303 8.73059 35949 ft 462 kts 34°
2026-05-08 09:08 43.19828 8.75718 35605 ft 460 kts 34°
2026-05-08 09:08 43.22384 8.78407 35011 ft 462 kts 34°
2026-05-08 09:08 43.24922 8.81085 34504 ft 463 kts 34°
2026-05-08 09:08 43.27463 8.83766 33877 ft 466 kts 34°
2026-05-08 09:09 43.30018 8.86466 33244 ft 467 kts 36°
2026-05-08 09:09 43.32577 8.89173 32654 ft 467 kts 36°
2026-05-08 09:09 43.35191 8.91783 32021 ft 467 kts 30°
2026-05-08 09:09 43.38055 8.93852 31326 ft 467 kts 21°
2026-05-08 09:10 43.41128 8.95263 30606 ft 467 kts 11°
2026-05-08 09:10 43.44313 8.95967 29891 ft 465 kts
2026-05-08 09:10 43.47549 8.96007 29261 ft 460 kts 356°
2026-05-08 09:10 43.50716 8.95922 28789 ft 456 kts 357°
2026-05-08 09:11 43.53868 8.95885 28226 ft 452 kts 357°
2026-05-08 09:11 43.56999 8.95863 27660 ft 449 kts 358°
2026-05-08 09:11 43.60091 8.95849 26940 ft 451 kts 358°
2026-05-08 09:11 43.63217 8.95870 26173 ft 452 kts
2026-05-08 09:12 43.66373 8.96271 25456 ft 452 kts
2026-05-08 09:12 43.69467 8.96737 24941 ft 447 kts
2026-05-08 09:12 43.72517 8.97199 24439 ft 442 kts
2026-05-08 09:12 43.75579 8.97670 23930 ft 437 kts
2026-05-08 09:13 43.78564 8.98132 23446 ft 432 kts
2026-05-08 09:13 43.81511 8.98591 22983 ft 427 kts
2026-05-08 09:13 43.84455 8.99050 22520 ft 422 kts
2026-05-08 09:13 43.87332 8.99500 22071 ft 417 kts
2026-05-08 09:14 43.90207 8.99950 21630 ft 412 kts
2026-05-08 09:14 43.93046 9.00396 21192 ft 407 kts
2026-05-08 09:14 43.95824 9.00832 20765 ft 402 kts
2026-05-08 09:14 43.98573 9.01264 20353 ft 397 kts
2026-05-08 09:15 44.01316 9.01696 19918 ft 392 kts
2026-05-08 09:15 44.04002 9.02119 19488 ft 388 kts
2026-05-08 09:15 44.06661 9.02539 19058 ft 382 kts
2026-05-08 09:15 44.09288 9.02953 18635 ft 379 kts
2026-05-08 09:16 44.11866 9.03361 18214 ft 377 kts
2026-05-08 09:16 44.14459 9.03771 17784 ft 376 kts
2026-05-08 09:16 44.17079 9.04186 17366 ft 374 kts
2026-05-08 09:16 44.19644 9.04592 16947 ft 371 kts
2026-05-08 09:17 44.22189 9.04996 16533 ft 368 kts
2026-05-08 09:17 44.24717 9.05397 16124 ft 366 kts
2026-05-08 09:17 44.27230 9.05796 15709 ft 364 kts
2026-05-08 09:17 44.29747 9.06196 15315 ft 362 kts
2026-05-08 09:18 44.32232 9.06591 14922 ft 360 kts
2026-05-08 09:18 44.34708 9.06986 14508 ft 358 kts
2026-05-08 09:18 44.37175 9.07379 14116 ft 356 kts
2026-05-08 09:18 44.39610 9.07767 13716 ft 354 kts
2026-05-08 09:19 44.42036 9.08164 13323 ft 351 kts
2026-05-08 09:19 44.44424 9.08824 12936 ft 346 kts 13°
2026-05-08 09:19 44.46756 9.09534 12600 ft 343 kts 12°
2026-05-08 09:19 44.49066 9.10233 12265 ft 341 kts 12°
2026-05-08 09:20 44.51392 9.10939 11927 ft 340 kts 13°
2026-05-08 09:20 44.53683 9.11636 11569 ft 339 kts 13°
2026-05-08 09:20 44.55980 9.12336 11180 ft 337 kts 13°
2026-05-08 09:20 44.58242 9.13026 10925 ft 329 kts 13°
2026-05-08 09:21 44.60461 9.13703 10676 ft 321 kts 13°
2026-05-08 09:21 44.62628 9.14365 10426 ft 313 kts 13°
2026-05-08 09:22 44.74347 9.18833 10015 ft 289 kts 24°
2026-05-08 09:23 44.76192 9.19910 10008 ft 287 kts 24°
2026-05-08 09:23 44.78022 9.20987 10009 ft 286 kts 24°
2026-05-08 09:23 44.79866 9.22073 10011 ft 287 kts 24°
2026-05-08 09:23 44.81712 9.23162 10012 ft 288 kts 24°
2026-05-08 09:24 44.83565 9.24258 9948 ft 291 kts 24°
2026-05-08 09:24 44.85426 9.25358 9663 ft 288 kts 24°
2026-05-08 09:24 44.87264 9.26446 9280 ft 283 kts 24°
2026-05-08 09:24 44.89050 9.27505 8902 ft 278 kts 24°
2026-05-08 09:25 44.90825 9.28557 8512 ft 273 kts 24°
2026-05-08 09:25 44.92556 9.29585 8131 ft 268 kts 25°
2026-05-08 09:25 44.94260 9.30596 7752 ft 265 kts 25°
2026-05-08 09:25 44.95937 9.31593 7374 ft 261 kts 25°
2026-05-08 09:26 44.97618 9.32452 6999 ft 259 kts 10°
2026-05-08 09:26 44.99417 9.32474 6655 ft 257 kts 359°
2026-05-08 09:26 45.01196 9.32315 6289 ft 254 kts 359°
2026-05-08 09:26 45.02926 9.32159 5971 ft 250 kts 359°
2026-05-08 09:27 45.04661 9.31988 5638 ft 246 kts 359°
2026-05-08 09:27 45.06351 9.31814 5309 ft 243 kts 359°
2026-05-08 09:27 45.08024 9.31639 4983 ft 240 kts 358°
2026-05-08 09:27 45.09685 9.31462 4661 ft 237 kts 359°
2026-05-08 09:28 45.11309 9.31287 4341 ft 235 kts 358°
2026-05-08 09:28 45.12928 9.31101 4081 ft 229 kts 358°
2026-05-08 09:28 45.14482 9.30917 3835 ft 225 kts 359°
2026-05-08 09:28 45.16046 9.30738 3582 ft 221 kts 359°
2026-05-08 09:29 45.17547 9.30570 3367 ft 214 kts 360°
2026-05-08 09:29 45.19003 9.30409 3120 ft 209 kts 359°
2026-05-08 09:29 45.20441 9.30255 2930 ft 200 kts 359°
2026-05-08 09:29 45.21767 9.30110 2952 ft 183 kts 359°
2026-05-08 09:30 45.23055 9.29976 2961 ft 191 kts 359°
2026-05-08 09:30 45.24400 9.29844 2946 ft 194 kts 359°
2026-05-08 09:30 45.25726 9.29712 2939 ft 191 kts 359°
2026-05-08 09:30 45.27056 9.29566 2947 ft 191 kts 358°
2026-05-08 09:31 45.28395 9.29419 2948 ft 193 kts 358°
2026-05-08 09:31 45.29732 9.29274 2942 ft 192 kts 359°
2026-05-08 09:31 45.31081 9.29131 2734 ft 196 kts 359°
2026-05-08 09:31 45.32401 9.28989 2477 ft 185 kts 359°
2026-05-08 09:32 45.33641 9.28854 2259 ft 168 kts 359°
2026-05-08 09:32 45.34742 9.28735 2051 ft 152 kts 359°
2026-05-08 09:32 45.35774 9.28627 1836 ft 146 kts 359°
2026-05-08 09:32 45.36794 9.28523 1639 ft 149 kts 359°
2026-05-08 09:33 45.37833 9.28415 1458 ft 151 kts 358°
2026-05-08 09:33 45.38884 9.28303 1243 ft 150 kts 358°
2026-05-08 09:33 45.39919 9.28193 1060 ft 148 kts 358°
2026-05-08 09:33 45.40928 9.28086 853 ft 144 kts 357°
2026-05-08 09:34 45.41958 9.27978 673 ft 155 kts 358°
2026-05-08 09:34 45.43087 9.27860 475 ft 165 kts 356°
2026-05-08 09:34 45.44181 9.27736 347 ft 149 kts 358°
2026-05-08 09:34 45.44990 9.27653 355 ft 59 kts 355°
2026-05-08 09:35 45.45244 9.27636 354 ft 31 kts
2026-05-08 09:35 45.45370 9.27703 351 ft 10 kts 27°
2026-05-08 09:35 45.45421 9.27743 352 ft 6 kts 37°
2026-05-08 09:35 45.45455 9.27815 352 ft 14 kts 78°
2026-05-08 09:36 45.45463 9.27941 354 ft 8 kts 64°
2026-05-08 09:36 45.45490 9.27965 354 ft 3 kts 27°
2026-05-08 09:36 45.45509 9.28016 356 ft 5 kts 79°
2026-05-08 09:36 45.45511 9.28045 357 ft 4 kts 88°
2026-05-08 09:37 45.45511 9.28063 358 ft 0 kts 89°